Overview Statistics Trail Chart Weather Telemetry Raw packets
 

This is the latest recevied weather packets stored in our database for station/object N0MR. If no packets are shown the sender has not sent any weather packets the latest 10 day(s).

<< 33 34 35 36 37 38 39 >>
Time Temp. Humidity Pressure Rain* Wind** Luminosity Snow
1788039347 21.11° C 81% 1011.7 hPa 0 mm - - -
1788038747 21.11° C 81% 1011.7 hPa 0 mm - - -
1788038149 20.56° C 83% 1011.7 hPa 0 mm - - -
1788037548 20.56° C 83% 1011.7 hPa 0 mm - - -
1788036947 20.56° C 82% 1011.9 hPa 0 mm - - -
1788036349 20.56° C 82% 1011.9 hPa 0 mm - - -
1788035748 20.56° C 83% 1011.9 hPa 0 mm - - -
1788035148 20.56° C 83% 1011.9 hPa 0 mm - - -
1788034548 21.11° C 81% 1012.3 hPa 0 mm - - -
1788033950 21.11° C 81% 1012.3 hPa 0 mm - - -
1788033351 21.67° C 78% 1012.4 hPa 0 mm - - -
1788032747 21.67° C 78% 1012.4 hPa 0 mm - - -
1788032147 22.22° C 76% 1012.5 hPa 0 mm - - -
1788031547 22.78° C 72% 1012.4 hPa 0 mm - - -
1788030949 22.78° C 72% 1012.4 hPa 0 mm - - -
1788030348 22.78° C 72% 1012.4 hPa 0 mm - - -
1788029749 22.78° C 72% 1012.4 hPa 0 mm - - -
1788029149 22.78° C 73% 1012.3 hPa 0 mm - - -
1788028549 22.78° C 73% 1012.3 hPa 0 mm - - -
1788027948 22.22° C 74% 1012.4 hPa 0 mm - - -
1788027349 22.22° C 74% 1012.4 hPa 0 mm - - -
1788026749 22.22° C 75% 1012.7 hPa 0 mm - - -
1788026158 22.22° C 75% 1012.7 hPa 0 mm - - -
1788025549 22.22° C 76% 1012.7 hPa 0 mm - - -
1788024950 22.22° C 76% 1012.7 hPa 0 mm - - -

* Rain latest hour (hover to see other rain measurements)
** Current wind speed in m/s (hover to see current wind gust speed)